Flag for Iceland Weather past 2 weeks in Reykjavik, Iceland

Now
39 °F

Light rain. Overcast.


Feels Like: 28 °F
Forecast: 32 / 37 °F
Wind: 25 mph from Southeast

Location: Reykjavik Airport

Current Time: Mar 6, 2015 at 6:35:04 AM

Latest Report: Mar 6, 2015 at 6:00 AM


Visibility: N/A

Pressure: 28.88 "Hg

Humidity: 75%

Dew point: 32 °F

Location of ReykjavikLocation

Historic Weather in Reykjavik — Graph

°F

Reykjavik temperature yesterday

Maximum temperature yesterday: 39 °F (at 1:00 AM)
Minimum temperature yesterday: 32 °F (at 1:00 PM)
Average temperature yesterday: 35 °F

Past Weeks' High & Low Weather Summary

 TemperatureHumidityPressure
High41 °F (Mar 4, 6:00 PM)93% (Feb 19, 7:00 AM)29.77 "Hg (Feb 19, 7:00 AM)
Low18 °F (Feb 21, 9:00 AM)44% (Mar 2, 12:00 AM)28.03 "Hg (Feb 26, 5:00 AM)
Average30 °F72%29.04 "Hg
* Reported Feb 19 5:00 AM — Mar 6 5:00 AM, Reykjavik, Weather by CustomWeather, © 2015

Note: Actual official high and low records may vary slightly from our data, if they occured in-between our weather recording intervals... More about our weather records

Advertising

Reykjavik weather history for previous 24 hours

 ConditionsComfort  
Time TempWeatherWind HumidityBarometerVisibility
5:00 AM
Fri, Mar 6
39 °FPartly cloudy.31 mph75%28.97 "HgN/A
4:00 AM37 °FPassing clouds.29 mph81%29.09 "HgN/A
3:00 AM36 °FLight rain. Overcast.20 mph81%29.15 "HgN/A
2:00 AM36 °FSnow flurries. Mostly cloudy.21 mph81%29.24 "HgN/A
1:00 AM36 °FPartly cloudy.15 mph81%29.27 "HgN/A
12:00 AM34 °FPassing clouds.9 mph87%29.33 "HgN/A
11:00 PM
Thu, Mar 5
34 °FSnow flurries. Passing clouds.17 mph87%29.36 "Hg3 mi
10:00 PM32 °FPassing clouds.15 mph87%29.36 "HgN/A
9:00 PM34 °FPartly cloudy.16 mph75%29.36 "HgN/A
8:00 PM34 °FPassing clouds.13 mph81%29.36 "HgN/A
7:00 PM34 °FScattered showers. Passing clouds.16 mph87%29.36 "HgN/A
6:00 PM32 °FScattered showers. Broken clouds.14 mph93%29.36 "HgN/A
5:00 PM32 °FSnow flurries. Partly sunny.21 mph93%29.33 "Hg2 mi
4:00 PM34 °FScattered showers. Partly sunny.24 mph81%29.33 "HgN/A
3:00 PM36 °FScattered showers. Scattered clouds.21 mph70%29.30 "HgN/A
2:00 PM34 °FPassing clouds.26 mph75%29.27 "HgN/A
1:03 PM32 °FSnow flurries. Partly sunny.31 mph87%29.27 "Hg2 mi
1:00 PM32 °FLight snow. Partly sunny.32 mph87%29.27 "HgN/A
11:00 AM34 °FScattered clouds.23 mph81%29.18 "HgN/A
10:00 AM36 °FScattered showers. Scattered clouds.24 mph70%29.15 "HgN/A
9:00 AM36 °FSnow flurries. Partly sunny.24 mph70%29.12 "HgN/A
8:00 AM36 °FPassing clouds.24 mph75%29.09 "HgN/A
7:00 AM36 °FScattered showers. Partly cloudy.25 mph81%29.06 "HgN/A
6:00 AM37 °FScattered showers. Passing clouds.22 mph75%29.03 "HgN/A
Weather by CustomWeather, © 2015

See weather overviewHow to use our weather pages